Weather History for Indianapolis, IN

Change the Weather History Date:

Thursday, August 1, 2013

  Actual Average Record
Temperature  
Mean Temperature 74 °F 75 °F  
Max Temperature 84 °F 84 °F 97 °F (1887)
Min Temperature 64 °F 65 °F 53 °F (1971)
Degree Days  
Heating Degree Days 0 0  
Month to date heating degree days 0 0  
Since 1 June heating degree days 12 17  
Since 1 July heating degree days 3 1  
Cooling Degree Days 9 10  
Month to date cooling degree days 9 10  
Year to date cooling degree days 649 643  
Since 1 June cooling degree days 520 559  
Growing Degree Days 24 (Base 50)    
Moisture  
Dew Point 61 °F    
Average Humidity 65    
Maximum Humidity 93    
Minimum Humidity 37    
Precipitation  
Precipitation 0.00 in 0.11 in 2.86 in (1875)
Month to date precipitation 0.00 0.11  
Year to date precipitation 28.78 26.31  
Snow  
Snow 0.00 in 0.00 in 0.00 in ()
Month to date snowfall 0.0 0.0  
Since 1 June snowfall 0.0 0.0  
Since 1 July snowfall 0.0 0.0  
Snow Depth 0.00 in    
Sea Level Pressure  
Sea Level Pressure 29.97 in    
Wind  
Wind Speed 9 mph (WNW)    
Max Wind Speed 25 mph    
Max Gust Speed 33 mph    
Visibility 6 miles    
Events      
T = Trace of Precipitation, MM = Missing Value Source: NWS Daily Summary

Daily Weather History Graph

Daily Weather History Graph

Search for Another Location

Airport:

Trip Planner

Search our weather history database for the weather conditions in past years. The results will help you decide how hot, cold, wet, or windy it might be!

Date:

Astronomy

Aug. 01, 2013 Rise Set
Actual Time 6:44 AM EDT 8:57 PM EDT
Civil Twilight 6:14 AM EDT 9:27 PM EDT
Nautical Twilight 5:37 AM EDT 10:04 PM EDT
Astronomical Twilight 4:56 AM EDT 10:45 PM EDT
Moon 2:20 AM EDT (8/1) 5:06 PM EDT (8/1)
Length of Visible Light 15h 13m
Length of Day
14h 13m
Waning Crescent, 23% of the Moon is Illuminated
Aug 1
Waning Crescent
Aug 6
New
Aug 14
First Quarter
Aug 20
Full
Aug 28
Last Quarter

Hourly Weather History & Observations

Time (EDT) Temp. Heat Index Dew Point Humidity Pressure Visibility Wind Dir Wind Speed Gust Speed Precip Events Conditions
12:54 AM 69.1 °F - 66.9 °F 93% 29.96 in 7.0 mi NNW 6.9 mph - N/A   Mostly Cloudy
1:54 AM 68.0 °F - 64.9 °F 90% 29.95 in 5.0 mi Calm Calm - N/A   Partly Cloudy
2:32 AM 66.2 °F - 64.4 °F 94% 29.96 in 4.0 mi WNW 4.6 mph - N/A   Partly Cloudy
2:54 AM 66.0 °F - 64.0 °F 93% 29.95 in 4.0 mi WNW 4.6 mph - N/A   Partly Cloudy
3:16 AM 66.2 °F - 64.4 °F 94% 29.96 in 4.0 mi West 4.6 mph - N/A   Mostly Cloudy
3:31 AM 66.2 °F - 64.4 °F 94% 29.96 in 4.0 mi West 4.6 mph - N/A   Scattered Clouds
3:54 AM 66.0 °F - 64.0 °F 93% 29.94 in 3.0 mi West 5.8 mph - N/A   Partly Cloudy
4:00 AM 66.2 °F - 64.4 °F 94% 29.96 in 3.0 mi WNW 5.8 mph - N/A   Mostly Cloudy
4:25 AM 66.2 °F - 64.4 °F 94% 29.96 in 2.5 mi WNW 4.6 mph - N/A   Overcast
4:43 AM 66.2 °F - 64.4 °F 94% 29.96 in 1.8 mi WNW 6.9 mph - N/A   Overcast
4:54 AM 66.9 °F - 64.0 °F 90% 29.95 in 1.8 mi WNW 4.6 mph - N/A   Overcast
5:41 AM 66.2 °F - 64.4 °F 94% 29.97 in 2.0 mi West 3.5 mph - N/A   Overcast
5:49 AM 66.2 °F - 64.4 °F 94% 29.97 in 2.5 mi West 3.5 mph - N/A   Overcast
5:54 AM 66.0 °F - 64.0 °F 93% 29.96 in 2.5 mi WNW 5.8 mph - N/A   Overcast
6:35 AM 64.4 °F - 62.6 °F 94% 29.98 in 3.0 mi WNW 4.6 mph - N/A   Scattered Clouds
6:47 AM 64.4 °F - 62.6 °F 94% 29.98 in 2.0 mi WNW 4.6 mph - N/A   Scattered Clouds
6:54 AM 64.0 °F - 62.1 °F 93% 29.96 in 2.0 mi West 4.6 mph - N/A   Scattered Clouds
7:54 AM 66.0 °F - 63.0 °F 90% 29.98 in 2.0 mi West 4.6 mph - N/A   Partly Cloudy
8:04 AM 66.2 °F - 62.6 °F 88% 29.99 in 2.0 mi WNW 5.8 mph - N/A   Overcast
8:54 AM 68.0 °F - 64.0 °F 87% 29.99 in 2.0 mi NNW 9.2 mph - N/A   Mostly Cloudy
9:13 AM 69.8 °F - 64.4 °F 83% 30.01 in 6.0 mi NW 6.9 mph - N/A   Scattered Clouds
9:54 AM 71.1 °F - 64.0 °F 78% 30.00 in 8.0 mi WNW 6.9 mph - N/A   Scattered Clouds
10:54 AM 75.0 °F - 63.0 °F 66% 30.00 in 10.0 mi NW 6.9 mph - N/A   Partly Cloudy
11:54 AM 77.0 °F - 57.9 °F 52% 30.01 in 10.0 mi NW 10.4 mph - N/A   Partly Cloudy
12:54 PM 80.1 °F 80.6 °F 57.9 °F 47% 30.00 in 10.0 mi NNW 5.8 mph - N/A   Partly Cloudy
1:54 PM 82.0 °F 81.6 °F 55.9 °F 41% 29.98 in 10.0 mi West 11.5 mph - N/A   Scattered Clouds
2:54 PM 82.9 °F 81.8 °F 53.1 °F 36% 29.98 in 10.0 mi WNW 19.6 mph 27.6 mph N/A   Scattered Clouds
3:54 PM 82.9 °F 81.8 °F 53.1 °F 36% 29.97 in 10.0 mi WNW 16.1 mph 27.6 mph N/A   Scattered Clouds
4:54 PM 82.0 °F 81.2 °F 53.1 °F 37% 29.96 in 10.0 mi WNW 20.7 mph 25.3 mph N/A   Scattered Clouds
5:54 PM 81.0 °F 80.7 °F 55.0 °F 41% 29.96 in 10.0 mi NW 19.6 mph 23.0 mph N/A   Scattered Clouds
6:54 PM 78.1 °F - 55.9 °F 46% 29.95 in 10.0 mi WNW 10.4 mph - N/A   Mostly Cloudy
7:54 PM 78.1 °F - 55.9 °F 46% 29.94 in 10.0 mi West 10.4 mph - N/A   Scattered Clouds
8:54 PM 73.0 °F - 57.0 °F 57% 29.95 in 10.0 mi West 8.1 mph - N/A   Mostly Cloudy
9:54 PM 70.0 °F - 57.0 °F 63% 29.96 in 10.0 mi West 9.2 mph - N/A   Mostly Cloudy
10:54 PM 69.1 °F - 57.0 °F 65% 29.97 in 10.0 mi West 5.8 mph - N/A   Scattered Clouds
11:54 PM 66.0 °F - 57.0 °F 73% 29.97 in 10.0 mi West 6.9 mph - N/A   Partly Cloudy